EST,Max TemperatureF,Mean TemperatureF,Min TemperatureF,Max Dew PointF,MeanDew PointF,Min DewpointF,Max Humidity, Mean Humidity, Min Humidity, Max Sea Level PressureIn, Mean Sea Level PressureIn, Min Sea Level PressureIn, Max VisibilityMiles, Mean VisibilityMiles, Min VisibilityMiles, Max Wind SpeedMPH, Mean Wind SpeedMPH, Max Gust SpeedMPH,PrecipitationIn, CloudCover, Events, WindDirDegrees
2012-11-1,,,,,,,,,,,,,,,,,,,,,,
2012-11-2,,,,,,,,,,,,,,,,,,,,,,
2012-11-3,,,,,,,,,,,,,,,,,,,,,,
2012-11-4,,,,,,,,,,,,,,,,,,,,,,
2012-11-5,,,,,,,,,,,,,,,,,,,,,,
2012-11-6,46,41,36,26,24,22,60,53,46,30.15,30.10,30.04,10,10,10,10,5,,0.00,3,,30
2012-11-7,39,36,33,32,30,23,96,84,55,29.99,29.87,29.81,10,4,1,16,12,28,0.42,8,Rain-Snow,352
2012-11-8,48,40,33,31,24,17,92,57,28,29.99,29.85,29.79,10,8,2,16,9,26,0.23,4,Snow,327
2012-11-9,54,44,34,31,26,21,89,55,35,30.23,30.12,29.99,10,10,10,13,6,21,0.00,0,,302
2012-11-10,57,44,30,39,34,29,96,74,44,30.42,30.33,30.24,10,9,5,4,0,,0.00,2,,146
2012-11-11,70,52,35,49,41,34,100,84,35,30.49,30.44,30.40,10,4,0,7,1,,0.00,0,Fog,174
2012-11-12,70,54,37,57,50,38,100,83,57,30.46,30.36,30.18,10,6,0,9,2,18,0.00,2,Fog,170
2012-11-13,63,50,36,58,41,27,93,83,65,30.46,30.31,30.14,10,8,2,12,7,28,0.18,6,Rain,321
2012-11-14,48,39,28,30,27,25,92,67,44,30.53,30.49,30.45,10,10,10,12,4,17,0.00,0,,6
2012-11-15,46,38,30,32,29,24,89,69,51,30.44,30.38,30.30,10,10,10,7,3,,0.00,2,,31
2012-11-16,46,37,28,31,27,24,85,68,44,30.45,30.35,30.30,10,10,10,8,3,,0.00,0,,3
2012-11-17,54,41,28,35,30,24,96,71,43,30.63,30.57,30.45,10,10,6,10,3,,0.00,0,,47
2012-11-18,50,40,30,39,34,28,92,74,61,30.64,30.60,30.54,10,9,7,9,3,,0.00,6,,45
2012-11-19,52,44,37,41,37,33,87,74,62,30.51,30.39,30.24,10,10,10,10,8,,0.00,5,,24
2012-11-20,52,44,36,41,34,29,93,70,43,30.23,30.16,30.11,10,10,7,6,3,,0.00,1,,14
2012-11-21,54,43,30,36,31,26,89,71,38,30.23,30.19,30.14,10,10,10,10,2,,0.00,2,,27
2012-11-22,57,42,28,40,33,26,100,82,51,30.27,30.20,30.15,10,7,0,6,1,,0.00,1,Fog,6
2012-11-23,57,42,28,43,34,27,100,84,44,30.15,29.99,29.73,10,4,0,8,1,,0.02,5,Fog-Rain,202
2012-11-24,50,44,37,29,21,18,53,45,38,29.93,29.84,29.73,10,10,10,17,12,32,0.00,5,,287
2012-11-25,39,34,27,21,20,18,75,55,45,30.00,29.97,29.93,10,10,10,13,8,21,0.00,3,,252
2012-11-26,48,36,23,24,22,19,88,64,33,30.27,30.15,30.00,10,10,8,10,2,21,0.00,0,,265
2012-11-27,39,34,30,36,33,26,100,90,78,30.28,30.23,30.19,10,5,2,14,4,18,0.49,8,Rain,14
2012-11-28,39,32,26,32,26,21,92,72,49,30.34,30.26,30.20,10,9,5,12,3,20,0.00,3,,299
2012-11-29,45,36,28,25,22,20,81,60,40,30.41,30.36,30.32,10,10,9,10,4,17,0.00,0,,252
2012-11-30,48,36,24,34,28,21,92,76,48,30.40,30.37,30.35,10,7,2,7,1,,0.00,2,,31